Grand Forks, ND

5:27 AM CDT on May 26, 2018 (GMT -0500)
Grand Forks International

Weather History for KGFK - February, 2013

Change the Weather History Date:

Tuesday, February 5, 2013

  Actual Average Record
Temperature  
Mean Temperature 14 °F 9 °F  
Max Temperature 27 °F 19 °F 47 °F (1963)
Min Temperature 0 °F -1 °F -31 °F (2007)
Degree Days  
Heating Degree Days 51 56  
Month to date heating degree days 309 283  
Since 1 July heating degree days 5801 5949  
Cooling Degree Days 0 0  
Month to date cooling degree days 0 0  
Year to date cooling degree days 0 0  
Moisture  
Dew Point 3 °F    
Average Humidity 81    
Maximum Humidity 88    
Minimum Humidity 73    
Precipitation  
Precipitation T in 0.01 in 0.15 in (2010)
Month to date precipitation 0.11 0.07  
Year to date precipitation 0.53 0.62  
Snow  
Snow T in 0.30 in 1.40 in (2010)
Month to date snowfall 2.9 1.2  
Since 1 July snowfall 22.0 31.8  
Snow Depth 5.00 in    
Sea Level Pressure  
Sea Level Pressure 29.91 in    
Wind  
Wind Speed 12 mph (North)    
Max Wind Speed 26 mph    
Max Gust Speed 32 mph    
Visibility 8 miles    
Events Snow    
T = Trace of Precipitation, MM = Missing Value Source: NWS Daily Summary

Daily Weather History Graph

Daily Weather History Graph

Search for Another Location

Airport or City:

Astronomy

Feb. 05, 2013 Rise Set
Actual Time 7:50 AM CST 5:35 PM CST
Civil Twilight 7:17 AM CST 6:08 PM CST
Nautical Twilight 6:40 AM CST 6:45 PM CST
Astronomical Twilight 6:04 AM CST 7:21 PM CST
Moon 3:41 AM CST (2/5) 12:45 PM CST (2/5)
Length of Visible Light 10h 51m
Length of Day
9h 45m
Waning Crescent, 26% of the Moon is Illuminated
Feb 5
Waning Crescent
Feb 10
New
Feb 17
First Quarter
Feb 25
Full
Mar 4
Last Quarter

Hourly Weather History & Observations

Time (CST) Temp. Windchill Dew Point Humidity Pressure Visibility Wind Dir Wind Speed Gust Speed Precip Events Conditions
12:48 AM 23.0 °F 8.3 °F 19.4 °F 86% 29.56 in 10.0 mi North 19.6 mph - 0.00 in   Overcast
12:53 AM 21.9 °F 6.5 °F 18.0 °F 85% 29.61 in 10.0 mi North 20.7 mph - 0.00 in   Overcast
1:29 AM 17.6 °F 0.1 °F 12.2 °F 79% 29.60 in 9.0 mi North 23.0 mph - N/A   Overcast
1:49 AM 14.0 °F -3.9 °F 10.4 °F 86% 29.61 in 2.5 mi North 20.7 mph - 0.00 in   Overcast
1:53 AM 14.0 °F -5.5 °F 10.0 °F 84% 29.67 in 3.0 mi North 25.3 mph 31.1 mph 0.00 in   Overcast
2:39 AM 12.2 °F -6.3 °F 8.6 °F 85% 29.66 in 10.0 mi NNW 20.7 mph - 0.00 in   Overcast
2:50 AM 12.2 °F -4.8 °F 8.6 °F 85% 29.67 in 10.0 mi NNW 17.3 mph - 0.00 in   Overcast
2:53 AM 12.0 °F -6.0 °F 8.1 °F 84% 29.73 in 10.0 mi NNW 19.6 mph - 0.00 in   Overcast
3:53 AM 10.9 °F -7.9 °F 6.1 °F 81% 29.76 in 10.0 mi NNW 20.7 mph 27.6 mph N/A   Overcast
4:28 AM 10.4 °F -9.5 °F 6.8 °F 85% 29.73 in 9.0 mi North 23.0 mph - N/A   Overcast
4:53 AM 8.1 °F -11.2 °F 3.9 °F 83% 29.82 in 6.0 mi North 19.6 mph - N/A Snow Blowing Snow
5:04 AM 6.8 °F -12.4 °F 3.2 °F 85% 29.77 in 5.0 mi North 18.4 mph - 0.00 in Snow Blowing Snow
5:53 AM 5.0 °F -11.6 °F 1.9 °F 87% 29.87 in 6.0 mi NNW 12.7 mph - 0.00 in   Overcast
6:53 AM 3.0 °F -15.5 °F -0.9 °F 84% 29.90 in 6.0 mi North 15.0 mph - N/A   Overcast
7:51 AM 1.4 °F -18.8 °F -4.0 °F 78% 29.88 in 2.0 mi North 17.3 mph - N/A   Haze
7:53 AM 1.0 °F -19.3 °F -4.0 °F 79% 29.95 in 2.0 mi North 17.3 mph - N/A   Haze
8:53 AM -0.0 °F -18.7 °F -4.0 °F 83% 30.00 in 1.5 mi North 13.8 mph - N/A   Mostly Cloudy
9:53 AM 1.0 °F -19.3 °F -4.0 °F 79% 30.04 in 1.5 mi North 17.3 mph - N/A   Haze
10:53 AM 3.0 °F -12.5 °F -2.0 °F 80% 30.06 in 1.5 mi NNW 10.4 mph - N/A   Haze
11:23 AM 3.2 °F -13.9 °F -2.2 °F 78% 30.02 in 3.0 mi NW 12.7 mph - N/A   Haze
11:53 AM 3.9 °F -13.0 °F -2.0 °F 76% 30.08 in 9.0 mi NNW 12.7 mph - N/A   Mostly Cloudy
12:53 PM 6.1 °F -8.7 °F -0.9 °F 73% 30.07 in 10.0 mi NNW 10.4 mph - N/A   Mostly Cloudy
1:53 PM 7.0 °F -5.7 °F 1.0 °F 77% 30.08 in 10.0 mi NNW 8.1 mph - N/A   Mostly Cloudy
2:53 PM 7.0 °F -6.6 °F 1.0 °F 77% 30.09 in 10.0 mi North 9.2 mph - N/A   Overcast
3:53 PM 6.1 °F -2.8 °F -0.0 °F 76% 30.09 in 10.0 mi NW 4.6 mph - N/A   Overcast
4:53 PM 7.0 °F -1.7 °F -0.0 °F 73% 30.09 in 10.0 mi North 4.6 mph - N/A   Overcast
5:53 PM 7.0 °F - -0.9 °F 70% 30.10 in 10.0 mi Calm Calm - N/A   Overcast
6:53 PM 7.0 °F 0.1 °F -0.0 °F 73% 30.08 in 10.0 mi SE 3.5 mph - N/A   Overcast
7:53 PM 7.0 °F 0.1 °F -0.0 °F 73% 30.08 in 10.0 mi East 3.5 mph - N/A   Overcast
8:53 PM 8.1 °F 1.4 °F 1.0 °F 73% 30.09 in 10.0 mi SE 3.5 mph - N/A   Overcast
9:53 PM 8.1 °F -3.2 °F 3.0 °F 80% 30.06 in 10.0 mi ESE 6.9 mph - N/A   Overcast
10:53 PM 8.1 °F -4.3 °F 3.0 °F 80% 30.07 in 10.0 mi SE 8.1 mph - N/A   Overcast
11:09 PM 8.6 °F -3.7 °F 3.2 °F 79% 29.99 in 10.0 mi SE 8.1 mph - N/A   Overcast
11:30 PM 8.6 °F -4.7 °F 3.2 °F 79% 29.98 in 10.0 mi SSE 9.2 mph - N/A   Overcast
11:53 PM 9.0 °F -5.1 °F 3.9 °F 80% 30.04 in 10.0 mi SSE 10.4 mph - N/A   Overcast